Flag for Norway Weather past 2 weeks in Stavanger, Norway

Now
39 °F

Scattered clouds.


Feels Like: 36 °F
Forecast: 34 / 40 °F
Wind: 5 mph from South

Location: Stavanger / Sola

Current Time: Mar 3, 2015 at 1:12:26 PM

Latest Report: Mar 3, 2015 at 12:20 PM


Visibility: N/A

Pressure: 29.53 "Hg

Humidity: 81%

Dew point: 34 °F

Location of StavangerLocation

Historic Weather in Stavanger — Graph

°F

Stavanger temperature yesterday

Maximum temperature yesterday: 45 °F (at 11:50 AM)
Minimum temperature yesterday: 37 °F (at 4:50 AM)
Average temperature yesterday: 41 °F

Past Weeks' High & Low Weather Summary

 TemperatureHumidityPressure
High46 °F (Feb 18, 1:20 PM)100% (Feb 18, 6:20 AM)30.30 "Hg (Feb 18, 6:20 AM)
Low34 °F (Feb 17, 8:20 AM)53% (Feb 22, 11:20 AM)28.71 "Hg (Feb 23, 6:20 AM)
Average41 °F86%29.50 "Hg
* Reported Feb 16 11:20 AM — Mar 3 11:50 AM, Stavanger, Weather by CustomWeather, © 2015

Note: Actual official high and low records may vary slightly from our data, if they occured in-between our weather recording intervals... More about our weather records

Advertising

Stavanger weather history for previous 24 hours

 ConditionsComfort  
Time TempWeatherWind HumidityBarometerVisibility
11:50 AM
Tue, Mar 3
39 °FScattered clouds.6 mph87%29.53 "HgN/A
11:20 AM39 °FScattered clouds.6 mph87%29.53 "HgN/A
10:50 AM37 °FScattered clouds.5 mph87%29.53 "HgN/A
10:20 AM36 °FPartly sunny.2 mph93%29.53 "HgN/A
9:50 AM36 °FScattered showers. Broken clouds.2 mph93%29.53 "HgN/A
9:20 AM36 °FDrizzle. Broken clouds.7 mph93%29.50 "HgN/A
8:50 AM36 °FScattered showers. Partly sunny.6 mph87%29.50 "HgN/A
8:20 AM36 °FScattered showers. Partly sunny.3 mph87%29.50 "HgN/A
7:50 AM36 °FSprinkles. Partly sunny.6 mph87%29.50 "HgN/A
7:20 AM34 °FPassing clouds.5 mph93%29.50 "HgN/A
6:50 AM34 °FPassing clouds.8 mph93%29.50 "HgN/A
6:20 AM34 °FPassing clouds.7 mph93%29.47 "HgN/A
5:50 AM34 °FPassing clouds.7 mph93%29.47 "HgN/A
4:50 AM34 °FPassing clouds.6 mph100%29.47 "HgN/A
3:50 AM36 °FScattered showers. Partly cloudy.1 mph93%29.47 "HgN/A
2:50 AM37 °FScattered showers. Passing clouds.7 mph87%29.45 "HgN/A
1:50 AM34 °FPassing clouds.6 mph93%29.45 "HgN/A
12:50 AM36 °FPassing clouds.7 mph93%29.42 "HgN/A
12:20 AM37 °FPassing clouds.No wind87%29.42 "HgN/A
11:50 PM
Mon, Mar 2
37 °FPassing clouds.7 mph87%29.42 "HgN/A
11:20 PM39 °FSprinkles. Passing clouds.17 mph81%29.42 "HgN/A
10:50 PM39 °FLight rain. Partly cloudy.16 mph87%29.42 "HgN/A
10:20 PM41 °FPassing clouds.3 mph81%29.39 "HgN/A
9:50 PM41 °FPassing clouds.6 mph87%29.39 "HgN/A
9:20 PM37 °FPartly cloudy.6 mph87%29.36 "HgN/A
8:50 PM39 °FPartly cloudy.5 mph81%29.36 "HgN/A
8:20 PM41 °FPartly cloudy.6 mph81%29.36 "HgN/A
7:50 PM41 °FPartly cloudy.6 mph81%29.33 "HgN/A
7:20 PM39 °FPartly cloudy.5 mph87%29.33 "HgN/A
6:50 PM39 °FPassing clouds.9 mph87%29.33 "HgN/A
6:20 PM41 °FPassing clouds.9 mph87%29.30 "HgN/A
5:50 PM41 °FScattered showers. Broken clouds.7 mph87%29.27 "HgN/A
5:20 PM43 °FSprinkles. Broken clouds.9 mph76%29.27 "HgN/A
4:50 PM43 °FBroken clouds.10 mph76%29.27 "HgN/A
4:20 PM43 °FPartly sunny.7 mph71%29.24 "HgN/A
3:50 PM45 °FScattered clouds.7 mph71%29.24 "HgN/A
3:20 PM45 °FScattered clouds.7 mph71%29.24 "HgN/A
2:50 PM45 °FScattered clouds.7 mph71%29.24 "HgN/A
2:20 PM45 °FScattered clouds.8 mph66%29.21 "HgN/A
1:50 PM45 °FScattered clouds.9 mph71%29.21 "HgN/A
1:20 PM45 °FScattered clouds.10 mph76%29.18 "HgN/A
Weather by CustomWeather, © 2015

See weather overviewHow to use our weather pages